Montpelier, VT

3:25 AM EDT on August 26, 2016 (GMT -0400)
Knapp State

Weather History for KMPV - May, 2014

Change the Weather History Date:

Sunday, May 4, 2014

  Actual Average Record
Temperature  
Mean Temperature 47 °F 50 °F  
Max Temperature 52 °F 62 °F 83 °F (1949)
Min Temperature 42 °F 38 °F 26 °F (1967)
Degree Days  
Heating Degree Days 20 15  
Month to date heating degree days 62  
Since 1 July heating degree days 7766  
Cooling Degree Days 0 0  
Month to date cooling degree days 0 0  
Year to date cooling degree days 0 1  
Moisture  
Dew Point 42 °F    
Average Humidity 86    
Maximum Humidity 100    
Minimum Humidity 71    
Precipitation  
Precipitation 0.30 in 0.10 in 1.00 in (1972)
Month to date precipitation 0.76 0.40  
Year to date precipitation 10.22 9.94  
Sea Level Pressure  
Sea Level Pressure 29.61 in    
Wind  
Wind Speed 7 mph (NW)    
Max Wind Speed 16 mph    
Max Gust Speed 25 mph    
Visibility 8 miles    
Events Fog , Rain    
T = Trace of Precipitation, MM = Missing Value Source: NWS Daily Summary

Daily Weather History Graph

Daily Weather History Graph

Search for Another Location

Airport or City:

Trip Planner

Search our weather history database for the weather conditions in past years. The results will help you decide how hot, cold, wet, or windy it might be!

Date:

Astronomy

May. 04, 2014 Rise Set
Actual Time 5:37 AM EDT 7:57 PM EDT
Civil Twilight 5:05 AM EDT 8:29 PM EDT
Nautical Twilight 4:25 AM EDT 9:09 PM EDT
Astronomical Twilight 3:40 AM EDT 9:54 PM EDT
Moon 9:57 AM EDT (5/4) 12:01 AM EDT (5/4)
Length of Visible Light 15h 24m
Length of Day
14h 20m
Waxing Crescent, 27% of the Moon is Illuminated
May 4
Waxing Crescent
May 6
First Quarter
May 14
Full
May 21
Last Quarter
May 28
New

Hourly Weather History & Observations

Time (EDT) Temp. Windchill Dew Point Humidity Pressure Visibility Wind Dir Wind Speed Gust Speed Precip Events Conditions
12:51 AM 46.0 °F - 44.1 °F 93% 29.71 in 10.0 mi Calm Calm - N/A   Overcast
1:51 AM 45.0 °F - 44.1 °F 97% 29.67 in 10.0 mi Calm Calm - 0.00 in   Overcast
2:51 AM 44.1 °F - 44.1 °F 100% 29.64 in 3.0 mi Calm Calm - N/A   Overcast
2:59 AM 44.1 °F - 44.1 °F 100% 29.63 in 4.0 mi Calm Calm - N/A   Overcast
3:02 AM 44.1 °F 42.5 °F 44.1 °F 100% 29.62 in 1.8 mi WNW 3.5 mph - N/A   Overcast
3:04 AM 44.1 °F 42.5 °F 44.1 °F 100% 29.62 in 1.0 mi WNW 3.5 mph - N/A   Overcast
3:10 AM 44.1 °F - 44.1 °F 100% 29.62 in 0.2 mi Calm Calm - N/A Fog Fog
3:33 AM 44.1 °F - 44.1 °F 100% 29.62 in 0.2 mi Calm Calm - N/A Fog Fog
3:43 AM 44.1 °F 41.5 °F 44.1 °F 100% 29.62 in 1.0 mi WSW 4.6 mph - 0.00 in Rain Light Rain
3:45 AM 44.6 °F 42.2 °F 44.6 °F 100% 29.62 in 2.5 mi Variable 4.6 mph - 0.00 in Rain Light Rain
3:48 AM 44.6 °F 40.7 °F 44.6 °F 100% 29.62 in 7.0 mi SSW 6.9 mph - 0.00 in Rain Light Rain
3:51 AM 44.1 °F 38.1 °F 43.0 °F 96% 29.63 in 7.0 mi South 11.5 mph - 0.00 in Rain Light Rain
4:19 AM 44.1 °F 39.0 °F 42.1 °F 93% 29.62 in 7.0 mi South 9.2 mph - 0.06 in Rain Light Rain
4:51 AM 42.1 °F 39.2 °F 39.9 °F 92% 29.63 in 4.0 mi SSW 4.6 mph - 0.17 in Rain Rain
5:42 AM 42.1 °F - 41.0 °F 96% 29.61 in 9.0 mi Calm Calm - 0.05 in Rain Light Rain
5:51 AM 43.0 °F - 41.0 °F 93% 29.63 in 10.0 mi Calm Calm - 0.05 in Rain Light Rain
6:51 AM 42.1 °F - 41.0 °F 96% 29.62 in 10.0 mi Calm Calm - 0.01 in   Overcast
7:13 AM 42.1 °F 40.2 °F 41.0 °F 96% 29.59 in 10.0 mi SE 3.5 mph - N/A   Mostly Cloudy
7:36 AM 43.0 °F - 41.0 °F 93% 29.60 in 10.0 mi Calm Calm - N/A   Mostly Cloudy
7:51 AM 44.1 °F 42.5 °F 41.0 °F 89% 29.61 in 10.0 mi NW 3.5 mph - N/A   Overcast
8:00 AM 44.1 °F 41.5 °F 42.1 °F 93% 29.59 in 10.0 mi North 4.6 mph - N/A   Overcast
8:21 AM 44.1 °F 40.8 °F 42.1 °F 93% 29.59 in 10.0 mi North 5.8 mph - 0.00 in Rain Light Rain
8:40 AM 44.1 °F 42.5 °F 43.0 °F 96% 29.59 in 2.5 mi Variable 3.5 mph - 0.00 in   Mostly Cloudy
8:45 AM 44.6 °F 43.1 °F 42.8 °F 93% 29.59 in 2.0 mi Variable 3.5 mph - 0.00 in   Mostly Cloudy
8:51 AM 44.1 °F - 43.0 °F 96% 29.60 in 8.0 mi Calm Calm - 0.00 in   Mostly Cloudy
9:04 AM 45.0 °F 43.5 °F 43.0 °F 93% 29.58 in 10.0 mi NNE 3.5 mph - N/A   Overcast
9:18 AM 45.0 °F 43.5 °F 42.1 °F 90% 29.57 in 10.0 mi Variable 3.5 mph - N/A   Overcast
9:51 AM 46.9 °F - 44.1 °F 90% 29.59 in 10.0 mi NNE 4.6 mph - N/A   Overcast
10:11 AM 45.0 °F 40.1 °F 39.9 °F 82% 29.57 in 10.0 mi North 9.2 mph - N/A   Overcast
10:51 AM 45.0 °F 41.2 °F 39.9 °F 82% 29.58 in 10.0 mi Variable 6.9 mph - 0.00 in Rain Light Rain
11:51 AM 46.9 °F - 39.9 °F 77% 29.56 in 10.0 mi NE 4.6 mph - 0.00 in   Overcast
12:51 PM 48.0 °F - 39.9 °F 74% 29.56 in 10.0 mi NNW 6.9 mph - 0.00 in Rain Light Rain
1:29 PM 45.0 °F 40.1 °F 41.0 °F 86% 29.54 in 2.5 mi North 9.2 mph 25.3 mph 0.02 in Rain Rain
1:41 PM 46.0 °F 41.9 °F 43.0 °F 89% 29.54 in 9.0 mi NNW 8.1 mph - 0.02 in Rain Light Rain
1:51 PM 46.9 °F - 44.1 °F 90% 29.56 in 10.0 mi NNW 8.1 mph - 0.02 in   Overcast
2:51 PM 46.9 °F - 39.9 °F 77% 29.57 in 10.0 mi WNW 13.8 mph - 0.00 in Rain Light Rain
3:51 PM 46.9 °F - 41.0 °F 80% 29.58 in 10.0 mi West 9.2 mph - 0.01 in Rain Light Rain
4:25 PM 46.0 °F 41.4 °F 39.9 °F 79% 29.56 in 10.0 mi West 9.2 mph 17.3 mph 0.01 in Rain Light Rain
4:51 PM 46.0 °F 40.2 °F 39.0 °F 76% 29.60 in 10.0 mi West 12.7 mph - 0.01 in Rain Light Rain
5:05 PM 45.0 °F 39.3 °F 39.0 °F 80% 29.57 in 10.0 mi WNW 11.5 mph 19.6 mph 0.00 in Rain Light Rain
5:51 PM 44.1 °F 38.1 °F 39.0 °F 82% 29.60 in 9.0 mi WNW 11.5 mph 18.4 mph 0.01 in Rain Light Rain
6:23 PM 43.0 °F 38.2 °F 37.9 °F 82% 29.58 in 10.0 mi West 8.1 mph - 0.01 in Rain Light Rain
6:51 PM 43.0 °F 38.8 °F 37.9 °F 82% 29.62 in 10.0 mi West 6.9 mph - 0.01 in Rain Light Rain
7:51 PM 43.0 °F 38.8 °F 39.0 °F 86% 29.63 in 10.0 mi WNW 6.9 mph - 0.01 in   Overcast
8:51 PM 43.0 °F 37.2 °F 39.0 °F 86% 29.65 in 10.0 mi WNW 10.4 mph - 0.00 in   Overcast
9:51 PM 44.1 °F 38.6 °F 42.1 °F 93% 29.67 in 10.0 mi NW 10.4 mph 18.4 mph 0.00 in Rain Light Rain
9:54 PM 44.1 °F 38.1 °F 42.1 °F 93% 29.65 in 10.0 mi NNW 11.5 mph - 0.00 in Rain Light Rain
10:01 PM 44.1 °F 38.1 °F 42.1 °F 93% 29.66 in 10.0 mi NNW 11.5 mph - 0.00 in Rain Light Rain
10:51 PM 45.0 °F 39.3 °F 43.0 °F 93% 29.70 in 10.0 mi NW 11.5 mph 19.6 mph 0.00 in   Overcast
10:58 PM 45.0 °F 38.9 °F 43.0 °F 93% 29.67 in 10.0 mi NW 12.7 mph - N/A   Overcast
11:30 PM 45.0 °F 39.3 °F 43.0 °F 93% 29.68 in 10.0 mi WNW 11.5 mph - 0.00 in   Overcast
11:51 PM 45.0 °F 41.2 °F 43.0 °F 93% 29.71 in 9.0 mi NW 6.9 mph 17.3 mph 0.00 in   Overcast